{"data":{"norad_id":63512,"epoch":"2026-05-24T06:47:52.002528Z","epoch_age_seconds":147450,"freshness":"FRESH","line1":"1 63512U 25071V   26144.28324077  .00011401  00000+0  37824-3 0  9995","line2":"2 63512  53.1599 148.7580 0000631  71.1900 288.9170 15.31730001 64323","mean_motion":15.31730001,"eccentricity":6.31e-5,"inclination_deg":53.1599,"raan_deg":148.758,"arg_perigee_deg":71.19,"mean_anomaly_deg":288.917,"bstar":0.00037824,"rev_number":6432,"period_min":94.011346585879,"perigee_km":470.2184067701,"apogee_km":471.08272376084,"semimajor_km":6848.7875652655,"source":"CELESTRAK","updated_at":"2026-05-25T13:38:20.038044Z"}}